Observations
| Time | Sensor | AQI | SAQ | Temp °C | Hum % | Pres Pa | CO μg/m³ | H₂S μg/m³ | NO μg/m³ | NO₂ μg/m³ | O₃ μg/m³ | SO₂ μg/m³ | CO₂e PPM | VOC PPM | PM1 μg/m³ | PM2.5 μg/m³ | PM4 μg/m³ | PM10 μg/m³ | TPS µm |
|---|---|---|---|---|---|---|---|---|---|---|---|---|---|---|---|---|---|---|---|
| Wednesday 12 August 2026 | |||||||||||||||||||
| 06:48 | Trim Patrick St | 2 | 19.9 | 70 | 38,460 | 0.06 | 0 | 1.19 | 12.45 | 54.6 | 0 | 9.71 | 14.53 | 15.98 | |||||
| 06:46 | Trim Patrick St | 2 | 19.8 | 69 | 38,460 | 0.06 | 0 | 1.14 | 9.89 | 50.58 | 0 | 6.29 | 11.74 | 12.91 | |||||
| 06:43 | Trim Market St | 2 | 20.1 | 68 | 56,651 | 0.12 | 0 | 1.24 | 10.73 | 74.23 | 0 | 4.28 | 5.62 | 8.17 | |||||
| 06:43 | Trim Patrick St | 2 | 19.7 | 70 | 38,460 | 0.06 | 0 | 1.26 | 7.27 | 50.46 | 0 | 8 | 12.32 | 13.55 | |||||
| 06:42 | Trim Market St | 2 | 20.1 | 68 | 56,643 | 0.12 | 0 | 1.24 | 10.71 | 67.15 | 0 | 3.56 | 5.61 | 8.81 | |||||
| 06:42 | Trim Patrick St | 2 | 19.7 | 70 | 38,460 | 0.06 | 0.51 | 1.22 | 27.54 | 49.05 | 0 | 7.14 | 11.6 | 12.76 | |||||
| 06:41 | Trim Market St | 2 | 20.1 | 68 | 56,645 | 0.12 | 0 | 1.18 | 14.71 | 62.97 | 0 | 4.28 | 5.61 | 8.81 | |||||
| 06:41 | Trim Patrick St | 2 | 19.7 | 70 | 38,460 | 0.05 | 0 | 1.22 | 6.14 | 51.68 | 0 | 8 | 11.61 | 12.77 | |||||
| 06:40 | Trim Market St | 2 | 20 | 68 | 56,645 | 0.13 | 0 | 1.16 | 10.44 | 71.15 | 0 | 4.28 | 6.1 | 8.81 | |||||
| 06:40 | Trim Patrick St | 2 | 19.6 | 70 | 38,460 | 0.06 | 0 | 1.2 | 7.96 | 51.56 | 0 | 7.14 | 10.19 | 11.21 | |||||
| 06:39 | Trim Market St | 2 | 20 | 68 | 56,634 | 0.12 | 0 | 1.15 | 10.72 | 71.03 | 0 | 2.85 | 5.13 | 8.17 | |||||
| 06:39 | Trim Patrick St | 2 | 19.6 | 69 | 38,460 | 0.07 | 0.46 | 1.17 | 16.42 | 56.23 | 0 | 7.14 | 11.71 | 12.88 | |||||
| 06:38 | Trim Market St | 2 | 20 | 68 | 56,628 | 0.12 | 0 | 1.15 | 10.31 | 68.25 | 0 | 4.28 | 5.61 | 8.81 | |||||
| 06:38 | Trim Patrick St | 2 | 19.6 | 70 | 38,460 | 0.07 | 0 | 1.15 | 15.01 | 50.37 | 0 | 6.29 | 9.45 | 10.39 | |||||
| 06:37 | Trim Market St | 2 | 20 | 68 | 56,620 | 0.12 | 0 | 1.14 | 10.88 | 71.35 | 0 | 4.28 | 5.61 | 8.17 | |||||
| 06:37 | Trim Patrick St | 2 | 19.5 | 70 | 38,460 | 0.07 | 0 | 1.15 | 10.59 | 52.5 | 0 | 7.14 | 11.64 | 12.81 | |||||
| 06:36 | Trim Market St | 2 | 20 | 68 | 56,609 | 0.12 | 0 | 1.14 | 11.12 | 72.33 | 0 | 4.99 | 6.1 | 8.81 | |||||
| 06:36 | Trim Patrick St | 2 | 19.6 | 71 | 38,460 | 0.06 | 0 | 1.12 | 8.03 | 50.13 | 0 | 6.29 | 10.86 | 11.94 | |||||
| 06:35 | Trim Market St | 2 | 19.9 | 68 | 56,605 | 0.12 | 0 | 1.16 | 11.67 | 69.56 | 0 | 4.28 | 5.61 | 8.17 | |||||
| 06:35 | Trim Patrick St | 2 | 19.5 | 70 | 38,460 | 0.07 | 0 | 1.13 | 9.09 | 48.76 | 0 | 7.14 | 11.6 | 12.76 | |||||